Date String (YYYY-MM-DD hh:mm:ss) UTC,Instrument flags,Ambient pressure (hPa),Sample flow (lpm),Bypass flow (lpm),Sample temperature (°C),Ambient temperature (°C),ASC tube jacket temperature (°C),LED temperature (°C),Box temperature (°C),Sample RH (%),Span deviation,Mass concentration (μg/m³),Mass concentration (μg/m³),Mass concentration (μg/m³)
DateTimeUTC,F1_M11,P_M11,Q1_M11,Q2_M11,T1_M11,T2_M11,T3_M11,T4_M11,T5_M11,U1_M11,ZSPAN_M11,X2_M11,X0_M11,X1_M11
2022-03-17 05:00:00,,0823.3,5.01,0.00,24.4,23.6,00.0,33.3,26.2,19.0,0000.0,0001.43,0002.59,0000.87
2022-03-17 05:01:00,,0823.3,4.99,0.00,24.4,23.6,00.0,33.3,26.2,19.0,0000.0,0001.45,0002.64,0000.87
2022-03-17 05:02:00,,0823.3,5.00,0.00,24.4,23.6,00.0,33.3,26.2,19.0,0000.0,0001.42,0002.60,0000.87
2022-03-17 05:03:00,,0823.3,5.01,0.00,24.4,23.6,00.0,33.3,26.2,19.0,0000.0,0001.44,0002.76,0000.87
2022-03-17 05:04:00,,0823.2,5.00,0.00,24.4,23.6,00.0,33.3,26.2,19.0,0000.0,0001.41,0002.71,0000.86
2022-03-17 05:05:00,,0823.2,4.99,0.00,24.4,23.6,00.0,33.3,26.2,19.0,0000.0,0001.45,0002.80,0000.86
2022-03-17 05:06:00,,0823.2,5.01,0.00,24.4,23.6,00.0,33.3,26.2,19.0,0000.0,0001.45,0002.76,0000.86
2022-03-17 05:07:00,,0823.2,4.99,0.00,24.4,23.6,00.0,33.3,26.2,19.0,0000.0,0001.47,0002.86,0000.86
2022-03-17 05:08:00,,0823.2,5.01,0.00,24.4,23.6,00.0,33.3,26.2,19.0,0000.0,0001.50,0002.96,0000.85
2022-03-17 05:09:00,,0823.2,5.00,0.00,24.4,23.6,00.0,33.3,26.2,18.9,0000.0,0001.52,0003.05,0000.86
2022-03-17 05:10:00,,0823.2,4.99,0.00,24.4,23.6,00.0,33.3,26.2,18.9,0000.0,0001.52,0003.03,0000.86
2022-03-17 05:11:00,,0823.2,4.99,0.00,24.4,23.6,00.0,33.3,26.2,19.0,0000.0,0001.48,0002.94,0000.86
2022-03-17 05:12:00,,0823.2,5.01,0.00,24.4,23.6,00.0,33.3,26.2,19.0,0000.0,0001.43,0002.81,0000.85
2022-03-17 05:13:00,,0823.2,5.00,0.00,24.4,23.5,00.0,33.3,26.2,19.0,0000.0,0001.43,0002.78,0000.84
2022-03-17 05:14:00,,0823.2,5.00,0.00,24.4,23.5,00.0,33.3,26.2,19.0,0000.0,0001.38,0002.56,0000.83
2022-03-17 05:15:00,,0823.2,5.00,0.00,24.4,23.5,00.0,33.3,26.2,19.0,0000.0,0001.38,0002.57,0000.83
2022-03-17 05:16:00,,0823.2,5.02,0.00,24.4,23.5,00.0,33.3,26.2,19.0,0000.0,0001.37,0002.54,0000.83
2022-03-17 05:17:00,,0823.3,5.00,0.00,24.4,23.5,00.0,33.3,26.2,19.0,0000.0,0001.33,0002.43,0000.82
2022-03-17 05:18:00,,0823.2,4.99,0.00,24.4,23.5,00.0,33.3,26.2,19.0,0000.0,0001.27,0002.26,0000.81
2022-03-17 05:19:00,,0823.3,5.01,0.00,24.4,23.5,00.0,33.3,26.2,19.0,0000.0,0001.25,0002.17,0000.81
2022-03-17 05:20:00,,0823.3,4.99,0.00,24.4,23.5,00.0,33.3,26.2,19.0,0000.0,0001.24,0002.10,0000.80
2022-03-17 05:21:00,,0823.2,5.02,0.00,24.4,23.5,00.0,33.3,26.2,19.0,0000.0,0001.22,0002.04,0000.79
2022-03-17 05:22:00,,0823.3,4.99,0.00,24.4,23.5,00.0,33.3,26.2,19.1,0000.0,0001.23,0002.06,0000.78
2022-03-17 05:23:00,,0823.2,5.00,0.00,24.4,23.5,00.0,33.3,26.2,19.1,0000.0,0001.27,0002.18,0000.78
2022-03-17 05:24:00,,0823.2,4.99,0.00,24.4,23.5,00.0,33.3,26.2,19.1,0000.0,0001.29,0002.28,0000.78
2022-03-17 05:25:00,,0823.2,5.01,0.00,24.4,23.5,00.0,33.3,26.2,19.1,0000.0,0001.33,0002.38,0000.78
2022-03-17 05:26:00,,0823.2,4.98,0.00,24.4,23.5,00.0,33.3,26.2,19.1,0000.0,0001.28,0002.26,0000.78
2022-03-17 05:27:00,,0823.2,5.02,0.00,24.4,23.5,00.0,33.3,26.2,19.1,0000.0,0001.24,0002.20,0000.77
2022-03-17 05:28:00,,0823.3,4.99,0.00,24.4,23.5,00.0,33.3,26.2,19.1,0000.0,0001.29,0002.32,0000.78
2022-03-17 05:29:00,,0823.3,5.00,0.00,24.4,23.5,00.0,33.3,26.2,19.1,0000.0,0001.29,0002.33,0000.78
2022-03-17 05:30:00,,0823.3,5.00,0.00,24.4,23.5,00.0,33.3,26.2,19.1,0000.0,0001.29,0002.33,0000.79
2022-03-17 05:31:00,,0823.4,5.00,0.00,24.4,23.6,00.0,33.3,26.2,19.1,0000.0,0001.27,0002.73,0000.79
2022-03-17 05:32:00,,0823.3,5.01,0.00,24.4,23.6,00.0,33.3,26.2,19.1,0000.0,0001.27,0003.17,0000.80
2022-03-17 05:33:00,,0823.4,5.00,0.00,24.4,23.5,00.0,33.3,26.2,19.1,0000.0,0001.28,0003.17,0000.81
2022-03-17 05:34:00,,0823.4,5.00,0.00,24.4,23.5,00.0,33.3,26.2,19.1,0000.0,0001.28,0003.16,0000.82
2022-03-17 05:35:00,,0823.4,5.00,0.00,24.4,23.5,00.0,33.3,26.2,19.1,0000.0,0001.29,0003.12,0000.82
2022-03-17 05:36:00,,0823.4,4.99,0.00,24.4,23.5,00.0,33.3,26.2,19.1,0000.0,0001.25,0003.04,0000.82
2022-03-17 05:37:00,,0823.4,5.01,0.00,24.3,23.5,00.0,33.3,26.2,19.1,0000.0,0001.25,0003.01,0000.82
2022-03-17 05:38:00,,0823.4,5.00,0.00,24.4,23.5,00.0,33.3,26.2,19.1,0000.0,0001.25,0003.00,0000.82
2022-03-17 05:39:00,,0823.4,5.01,0.00,24.3,23.5,00.0,33.3,26.2,19.1,0000.0,0001.23,0003.14,0000.82
2022-03-17 05:40:00,,0823.4,5.00,0.00,24.3,23.5,00.0,33.3,26.2,19.1,0000.0,0001.24,0003.58,0000.82
2022-03-17 05:41:00,,0823.3,4.99,0.00,24.3,23.5,00.0,33.3,26.2,19.1,0000.0,0001.28,0003.66,0000.82
2022-03-17 05:42:00,,0823.4,5.01,0.00,24.3,23.5,00.0,33.3,26.2,19.1,0000.0,0001.29,0003.42,0000.83
2022-03-17 05:43:00,,0823.4,4.99,0.00,24.3,23.5,00.0,33.3,26.2,19.1,0000.0,0001.27,0002.82,0000.82
2022-03-17 05:44:00,,0823.4,5.00,0.00,24.3,23.5,00.0,33.3,26.2,19.1,0000.0,0001.27,0002.81,0000.81
2022-03-17 05:45:00,,0823.4,5.01,0.00,24.3,23.5,00.0,33.3,26.2,19.3,0000.0,0001.24,0002.74,0000.81
2022-03-17 05:46:00,,0823.4,4.99,0.00,24.3,23.5,00.0,33.3,26.2,20.5,0000.0,0001.24,0002.69,0000.81
2022-03-17 05:47:00,,0823.4,5.01,0.00,24.3,23.5,00.0,33.3,26.1,22.2,0000.0,0001.25,0002.69,0000.82
2022-03-17 05:48:00,,0823.4,5.00,0.00,24.3,23.5,00.0,33.3,26.1,20.9,0000.0,0001.25,0002.70,0000.82
2022-03-17 05:49:00,,0823.4,5.00,0.00,24.3,23.5,00.0,33.3,26.1,19.5,0000.0,0001.24,0004.13,0000.82
2022-03-17 05:50:00,,0823.4,5.00,0.00,24.3,23.5,00.0,33.3,26.1,19.3,0000.0,0001.26,0004.12,0000.83
2022-03-17 05:51:00,,0823.4,5.02,0.00,24.3,23.4,00.0,33.3,26.1,19.2,0000.0,0001.27,0003.77,0000.83
2022-03-17 05:52:00,,0823.4,4.99,0.00,24.3,23.5,00.0,33.3,26.1,19.1,0000.0,0001.27,0003.74,0000.83
2022-03-17 05:53:00,,0823.4,5.01,0.00,24.3,23.4,00.0,33.3,26.1,19.1,0000.0,0001.27,0003.74,0000.83
2022-03-17 05:54:00,,0823.4,4.99,0.00,24.3,23.4,00.0,33.3,26.1,19.1,0000.0,0001.27,0003.70,0000.84
2022-03-17 05:55:00,,0823.4,4.99,0.00,24.3,23.5,00.0,33.2,26.1,19.0,0000.0,0001.28,0003.75,0000.86
2022-03-17 05:56:00,,0823.4,4.99,0.00,24.3,23.5,00.0,33.3,26.1,19.0,0000.0,0001.30,0003.86,0000.86
2022-03-17 05:57:00,,0823.3,5.01,0.00,24.3,23.5,00.0,33.2,26.1,19.0,0000.0,0001.31,0003.94,0000.86
2022-03-17 05:58:00,,0823.3,4.99,0.00,24.3,23.4,00.0,33.2,26.1,19.0,0000.0,0001.33,0004.04,0000.86
2022-03-17 05:59:00,,0823.4,5.01,0.00,24.2,23.4,00.0,33.2,26.1,19.0,0000.0,0001.42,0004.29,0000.88
